| time (UTC) | temp C | wind direction | speed KPH | gust KPH | rain 1hr cm | rain 24hr cm | rain mn cm | humidity % | barometer mb |
| 20260906114143 | 21 | 309 | 3.2 | 3.2 | 0.00 | 0.00 | 0.00 | 99 | 1019.0 |
| 20260906113641 | 21 | 257 | 3.2 | 4.8 | 0.00 | 0.00 | 0.00 | 99 | 1019.0 |
| 20260906113141 | 21 | 283 | 4.8 | 4.8 | 0.00 | 0.00 | 0.00 | 99 | 1019.0 |
| 20260906112641 | 21 | 279 | 1.6 | 4.8 | 0.00 | 0.00 | 0.00 | 99 | 1019.0 |
| 20260906112141 | 21 | 269 | 1.6 | 3.2 | 0.00 | 0.00 | 0.00 | 99 | 1019.0 |
| 20260906111641 | 21 | 255 | 0.0 | 3.2 | 0.00 | 0.00 | 0.00 | 99 | 1019.0 |
| 20260906111141 | 21 | 246 | 1.6 | 3.2 | 0.00 | 0.00 | 0.00 | 99 | 1019.0 |
| 20260906110642 | 21 | 256 | 3.2 | 4.8 | 0.00 | 0.00 | 0.00 | 99 | 1019.0 |
| 20260906110142 | 21 | 266 | 1.6 | 4.8 | 0.00 | 0.00 | 0.00 | 99 | 1019.0 |
| 20260906105641 | 21 | 302 | 3.2 | 3.2 | 0.00 | 0.00 | 0.00 | 99 | 1019.0 |
| 20260906105141 | 21 | 281 | 1.6 | 4.8 | 0.00 | 0.00 | 0.00 | 99 | 1019.0 |
| 20260906104641 | 21 | 299 | 4.8 | 4.8 | 0.00 | 0.00 | 0.00 | 99 | 1019.0 |
| 20260906104141 | 21 | 286 | 0.0 | 3.2 | 0.00 | 0.00 | 0.00 | 99 | 1019.0 |
| 20260906103641 | 21 | 287 | 1.6 | 3.2 | 0.00 | 0.00 | 0.00 | 99 | 1019.0 |
| 20260906103141 | 21 | 288 | 1.6 | 3.2 | 0.00 | 0.00 | 0.00 | 99 | 1019.0 |
| 20260906102641 | 21 | 283 | 3.2 | 3.2 | 0.00 | 0.00 | 0.00 | 99 | 1019.0 |
| 20260906102141 | 21 | 303 | 1.6 | 3.2 | 0.00 | 0.00 | 0.00 | 99 | 1019.0 |
| 20260906101641 | 21 | 231 | 1.6 | 3.2 | 0.00 | 0.00 | 0.00 | 99 | 1019.0 |
| 20260906101141 | 21 | 262 | 0.0 | 1.6 | 0.00 | 0.00 | 0.00 | 99 | 1019.0 |
| 20260906100642 | 21 | 266 | 1.6 | 1.6 | 0.00 | 0.00 | 0.00 | 99 | 1019.0 |
| 20260906100141 | 21 | 269 | 0.0 | 1.6 | 0.00 | 0.00 | 0.00 | 99 | 1019.0 |
| 20260906095642 | 21 | 282 | 1.6 | 1.6 | 0.00 | 0.00 | 0.00 | 99 | 1019.0 |
| 20260906095142 | 21 | 291 | 0.0 | 1.6 | 0.00 | 0.00 | 0.00 | 99 | 1018.0 |
| 20260906094642 | 21 | 273 | 3.2 | 3.2 | 0.00 | 0.00 | 0.00 | 99 | 1018.0 |
| 20260906094142 | 21 | 284 | 0.0 | 1.6 | 0.00 | 0.00 | 0.00 | 99 | 1018.0 |
| 20260906093641 | 21 | 281 | 1.6 | 1.6 | 0.00 | 0.00 | 0.00 | 99 | 1019.0 |
| 20260906093141 | 21 | 289 | 1.6 | 1.6 | 0.00 | 0.00 | 0.00 | 99 | 1018.0 |
| 20260906092641 | 21 | 269 | 0.0 | 1.6 | 0.00 | 0.00 | 0.00 | 99 | 1018.0 |
| 20260906092141 | 21 | 284 | 0.0 | 1.6 | 0.00 | 0.00 | 0.00 | 99 | 1018.0 |
| 20260906091643 | 21 | 280 | 1.6 | 1.6 | 0.00 | 0.00 | 0.00 | 99 | 1018.0 |
| 20260906091141 | 21 | 260 | 0.0 | 1.6 | 0.00 | 0.00 | 0.00 | 99 | 1018.0 |
| 20260906090642 | 21 | 284 | 0.0 | 0.0 | 0.00 | 0.00 | 0.00 | 99 | 1018.0 |
| 20260906090141 | 21 | 269 | 0.0 | 1.6 | 0.00 | 0.00 | 0.00 | 99 | 1018.0 |
| 20260906085641 | 21 | 269 | 0.0 | 1.6 | 0.00 | 0.00 | 0.00 | 99 | 1018.0 |
| 20260906085141 | 21 | 269 | 0.0 | 1.6 | 0.00 | 0.00 | 0.00 | 99 | 1019.0 |
| 20260906084642 | 21 | 295 | 3.2 | 3.2 | 0.00 | 0.00 | 0.00 | 99 | 1018.0 |
| 20260906084141 | 21 | 272 | 1.6 | 3.2 | 0.00 | 0.00 | 0.00 | 99 | 1018.0 |
| 20260906083641 | 21 | 266 | 1.6 | 1.6 | 0.00 | 0.00 | 0.00 | 99 | 1018.0 |
| 20260906083141 | 21 | 258 | 0.0 | 3.2 | 0.00 | 0.00 | 0.00 | 99 | 1018.0 |
| 20260906082642 | 21 | 273 | 1.6 | 1.6 | 0.00 | 0.00 | 0.00 | 99 | 1018.0 |
| 20260906082141 | 21 | 278 | 0.0 | 1.6 | 0.00 | 0.00 | 0.00 | 99 | 1018.0 |
| 20260906081641 | 21 | 282 | 1.6 | 3.2 | 0.00 | 0.00 | 0.00 | 99 | 1018.0 |
| 20260906081142 | 21 | 269 | 1.6 | 1.6 | 0.00 | 0.00 | 0.00 | 99 | 1018.0 |
| 20260906080641 | 21 | 269 | 0.0 | 1.6 | 0.00 | 0.00 | 0.00 | 99 | 1018.0 |
| 20260906080141 | 21 | 285 | 1.6 | 1.6 | 0.00 | 0.00 | 0.00 | 99 | 1018.0 |
| 20260906075641 | 21 | 272 | 1.6 | 3.2 | 0.00 | 0.00 | 0.00 | 99 | 1018.0 |
| 20260906075141 | 21 | 269 | 1.6 | 3.2 | 0.00 | 0.00 | 0.00 | 99 | 1018.0 |
| 20260906074641 | 21 | 273 | 1.6 | 3.2 | 0.00 | 0.00 | 0.00 | 99 | 1018.0 |
| 20260906074141 | 21 | 277 | 3.2 | 3.2 | 0.00 | 0.00 | 0.00 | 99 | 1018.0 |
| 20260906073641 | 21 | 272 | 0.0 | 3.2 | 0.00 | 0.00 | 0.00 | 99 | 1018.0 |
| 20260906073141 | 21 | 249 | 0.0 | 3.2 | 0.00 | 0.00 | 0.00 | 99 | 1018.0 |
| 20260906072642 | 21 | 275 | 1.6 | 3.2 | 0.00 | 0.00 | 0.00 | 99 | 1018.0 |
| 20260906072141 | 21 | 234 | 0.0 | 1.6 | 0.00 | 0.00 | 0.00 | 99 | 1018.0 |
| 20260906071641 | 21 | 274 | 1.6 | 3.2 | 0.00 | 0.00 | 0.00 | 99 | 1018.0 |
| 20260906071141 | 21 | 295 | 1.6 | 3.2 | 0.00 | 0.00 | 0.00 | 99 | 1018.0 |
| 20260906070641 | 21 | 269 | 1.6 | 3.2 | 0.00 | 0.00 | 0.00 | 99 | 1018.0 |
| 20260906070141 | 21 | 260 | 1.6 | 1.6 | 0.00 | 0.00 | 0.00 | 99 | 1018.0 |
| 20260906065641 | 21 | 288 | 0.0 | 3.2 | 0.00 | 0.00 | 0.00 | 99 | 1018.0 |
| 20260906065142 | 21 | 306 | 1.6 | 1.6 | 0.00 | 0.00 | 0.00 | 99 | 1018.0 |
| 20260906064641 | 21 | 307 | 1.6 | 3.2 | 0.00 | 0.00 | 0.00 | 99 | 1018.0 |
| 20260906064141 | 21 | 265 | 3.2 | 3.2 | 0.00 | 0.00 | 0.00 | 99 | 1018.0 |
| 20260906063642 | 21 | 269 | 0.0 | 3.2 | 0.00 | 0.00 | 0.00 | 99 | 1018.0 |
| 20260906063142 | 21 | 266 | 1.6 | 1.6 | 0.00 | 0.00 | 0.00 | 99 | 1018.0 |
| 20260906062641 | 21 | 289 | 1.6 | 3.2 | 0.00 | 0.00 | 0.00 | 99 | 1018.0 |
| 20260906062142 | 21 | 255 | 0.0 | 1.6 | 0.00 | 0.00 | 0.00 | 99 | 1018.0 |
| 20260906061641 | 21 | 271 | 3.2 | 3.2 | 0.00 | 0.00 | 0.00 | 99 | 1018.0 |
| 20260906061141 | 21 | 275 | 0.0 | 1.6 | 0.00 | 0.00 | 0.00 | 99 | 1018.0 |
| 20260906060641 | 21 | 283 | 0.0 | 1.6 | 0.00 | 0.00 | 0.00 | 99 | 1019.0 |
| 20260906060141 | 21 | 284 | 0.0 | 3.2 | 0.00 | 0.00 | 0.00 | 99 | 1019.0 |
| 20260906055644 | 21 | 274 | 1.6 | 3.2 | 0.00 | 0.00 | 0.00 | 99 | 1019.0 |
| 20260906055142 | 21 | 273 | 1.6 | 3.2 | 0.00 | 0.00 | 0.00 | 99 | 1019.0 |
| 20260906054641 | 21 | 269 | 0.0 | 1.6 | 0.00 | 0.00 | 0.00 | 99 | 1019.0 |
| 20260906054141 | 21 | 315 | 0.0 | 1.6 | 0.00 | 0.00 | 0.00 | 99 | 1019.0 |
| 20260906053641 | 21 | 279 | 1.6 | 3.2 | 0.00 | 0.00 | 0.00 | 99 | 1019.0 |
| 20260906053141 | 21 | 266 | 3.2 | 3.2 | 0.00 | 0.00 | 0.00 | 99 | 1019.0 |
| 20260906052642 | 21 | 266 | 0.0 | 3.2 | 0.00 | 0.00 | 0.00 | 99 | 1019.0 |
| 20260906052141 | 21 | 272 | 1.6 | 3.2 | 0.00 | 0.00 | 0.00 | 99 | 1019.0 |
| 20260906051642 | 21 | 269 | 0.0 | 1.6 | 0.00 | 0.00 | 0.00 | 99 | 1019.0 |
| 20260906051141 | 21 | 269 | 1.6 | 3.2 | 0.00 | 0.00 | 0.00 | 99 | 1019.0 |
| 20260906050644 | 21 | 272 | 1.6 | 3.2 | 0.00 | 0.00 | 0.00 | 99 | 1019.0 |
| 20260906050141 | 21 | 269 | 0.0 | 1.6 | 0.00 | 0.00 | 0.00 | 99 | 1019.0 |
| 20260906045643 | 21 | 284 | 0.0 | 3.2 | 0.00 | 0.00 | 0.00 | 99 | 1019.0 |
| 20260906045141 | 22 | 271 | 3.2 | 3.2 | 0.00 | 0.00 | 0.00 | 99 | 1019.0 |
| 20260906044641 | 21 | 273 | 3.2 | 3.2 | 0.00 | 0.00 | 0.00 | 99 | 1019.0 |
| 20260906044141 | 21 | 246 | 0.0 | 1.6 | 0.00 | 0.00 | 0.00 | 99 | 1019.0 |
| 20260906043641 | 22 | 279 | 1.6 | 3.2 | 0.00 | 0.00 | 0.00 | 99 | 1019.0 |
| 20260906043141 | 22 | 269 | 3.2 | 3.2 | 0.00 | 0.00 | 0.00 | 99 | 1019.0 |
| 20260906042641 | 22 | 271 | 1.6 | 3.2 | 0.00 | 0.00 | 0.00 | 99 | 1019.0 |
| 20260906042141 | 22 | 266 | 1.6 | 4.8 | 0.00 | 0.00 | 0.00 | 99 | 1019.0 |
| 20260906041642 | 22 | 272 | 1.6 | 4.8 | 0.00 | 0.00 | 0.00 | 99 | 1019.0 |
| 20260906041142 | 22 | 256 | 0.0 | 3.2 | 0.00 | 0.00 | 0.00 | 99 | 1019.0 |
| 20260906040641 | 22 | 271 | 3.2 | 4.8 | 0.00 | 0.00 | 0.00 | 99 | 1019.0 |
| 20260906040141 | 22 | 280 | 1.6 | 1.6 | 0.00 | 0.00 | 0.00 | 99 | 1019.0 |
| 20260906035644 | 22 | 291 | 3.2 | 4.8 | 0.00 | 0.00 | 0.00 | 99 | 1019.0 |
| 20260906035142 | 22 | 228 | 0.0 | 3.2 | 0.00 | 0.00 | 0.00 | 99 | 1019.0 |
| 20260906034641 | 22 | 255 | 0.0 | 1.6 | 0.00 | 0.00 | 0.00 | 99 | 1019.0 |
| 20260906034142 | 22 | 300 | 1.6 | 3.2 | 0.00 | 0.00 | 0.00 | 99 | 1019.0 |
| 20260906033641 | 22 | 289 | 4.8 | 4.8 | 0.00 | 0.00 | 0.00 | 99 | 1019.0 |
| 20260906033142 | 22 | 290 | 1.6 | 1.6 | 0.00 | 0.00 | 0.00 | 99 | 1019.0 |
| 20260906032641 | 22 | 298 | 3.2 | 4.8 | 0.00 | 0.00 | 0.00 | 99 | 1019.0 |
| 20260906032141 | 22 | 281 | 0.0 | 3.2 | 0.00 | 0.00 | 0.00 | 99 | 1019.0 |
| 20260906031641 | 22 | 278 | 3.2 | 3.2 | 0.00 | 0.00 | 0.00 | 99 | 1020.0 |
| 20260906031141 | 22 | 267 | 1.6 | 1.6 | 0.00 | 0.00 | 0.00 | 99 | 1020.0 |
| 20260906030641 | 22 | 297 | 0.0 | 1.6 | 0.00 | 0.00 | 0.00 | 99 | 1020.0 |
| 20260906030141 | 22 | 272 | 3.2 | 3.2 | 0.00 | 0.00 | 0.00 | 99 | 1020.0 |
| 20260906025641 | 22 | 275 | 0.0 | 1.6 | 0.00 | 0.00 | 0.00 | 99 | 1020.0 |
| 20260906025141 | 22 | 287 | 1.6 | 3.2 | 0.00 | 0.00 | 0.00 | 99 | 1021.0 |
| 20260906024641 | 22 | 288 | 3.2 | 3.2 | 0.00 | 0.00 | 0.00 | 99 | 1020.0 |
| 20260906024141 | 22 | 253 | 1.6 | 1.6 | 0.00 | 0.00 | 0.00 | 99 | 1021.0 |
| 20260906023641 | 22 | 283 | 0.0 | 0.0 | 0.00 | 0.00 | 0.00 | 99 | 1020.0 |
| 20260906023141 | 22 | 278 | 1.6 | 1.6 | 0.00 | 0.00 | 0.00 | 99 | 1020.0 |
| 20260906022641 | 22 | 292 | 1.6 | 3.2 | 0.00 | 0.00 | 0.00 | 99 | 1020.0 |
| 20260906022141 | 22 | 282 | 3.2 | 3.2 | 0.00 | 0.00 | 0.00 | 99 | 1020.0 |
| 20260906021642 | 22 | 295 | 3.2 | 3.2 | 0.00 | 0.00 | 0.00 | 99 | 1020.0 |
| 20260906021141 | 22 | 266 | 1.6 | 1.6 | 0.00 | 0.00 | 0.00 | 99 | 1020.0 |
| 20260906020641 | 22 | 269 | 0.0 | 0.0 | 0.00 | 0.00 | 0.00 | 99 | 1020.0 |
| 20260906020141 | 22 | 229 | 0.0 | 3.2 | 0.00 | 0.00 | 0.00 | 99 | 1020.0 |
| 20260906015641 | 22 | 279 | 3.2 | 3.2 | 0.00 | 0.00 | 0.00 | 99 | 1020.0 |
| 20260906015141 | 22 | 281 | 1.6 | 1.6 | 0.00 | 0.00 | 0.00 | 99 | 1020.0 |
| 20260906014641 | 22 | 263 | 1.6 | 1.6 | 0.00 | 0.00 | 0.00 | 99 | 1020.0 |
| 20260906014143 | 22 | 283 | 3.2 | 3.2 | 0.00 | 0.00 | 0.00 | 99 | 1020.0 |
| 20260906013641 | 22 | 268 | 1.6 | 3.2 | 0.00 | 0.00 | 0.00 | 99 | 1020.0 |
| 20260906013141 | 22 | 266 | 1.6 | 1.6 | 0.00 | 0.00 | 0.00 | 99 | 1020.0 |
| 20260906012641 | 22 | 263 | 1.6 | 3.2 | 0.00 | 0.00 | 0.00 | 99 | 1020.0 |
| 20260906012142 | 22 | 210 | 1.6 | 3.2 | 0.00 | 0.00 | 0.00 | 99 | 1020.0 |
| 20260906011641 | 22 | 243 | 0.0 | 3.2 | 0.00 | 0.00 | 0.00 | 99 | 1020.0 |
| 20260906011142 | 22 | 255 | 1.6 | 1.6 | 0.00 | 0.00 | 0.00 | 99 | 1020.0 |
| 20260906010642 | 22 | 248 | 0.0 | 1.6 | 0.00 | 0.00 | 0.00 | 99 | 1020.0 |
| 20260906010141 | 22 | 287 | 0.0 | 1.6 | 0.00 | 0.00 | 0.00 | 99 | 1020.0 |
| 20260906005641 | 22 | 245 | 1.6 | 3.2 | 0.00 | 0.00 | 0.00 | 99 | 1020.0 |
| 20260906005141 | 22 | 246 | 0.0 | 3.2 | 0.00 | 0.00 | 0.00 | 99 | 1020.0 |
| 20260906004641 | 22 | 286 | 4.8 | 4.8 | 0.00 | 0.00 | 0.00 | 99 | 1020.0 |
| 20260906004141 | 22 | 274 | 3.2 | 4.8 | 0.00 | 0.00 | 0.00 | 99 | 1020.0 |
| 20260906003641 | 22 | 241 | 1.6 | 4.8 | 0.00 | 0.00 | 0.00 | 99 | 1020.0 |
| 20260906003141 | 22 | 242 | 1.6 | 3.2 | 0.00 | 0.00 | 0.00 | 99 | 1019.0 |
| 20260906002641 | 22 | 262 | 4.8 | 4.8 | 0.00 | 0.00 | 0.00 | 99 | 1019.0 |
| 20260906002141 | 22 | 248 | 4.8 | 6.4 | 0.00 | 0.00 | 0.00 | 99 | 1019.0 |
| 20260906001641 | 23 | 269 | 1.6 | 1.6 | 0.00 | 0.00 | 0.00 | 99 | 1019.0 |
| 20260906001141 | 22 | 264 | 1.6 | 1.6 | 0.00 | 0.00 | 0.00 | 99 | 1019.0 |
| 20260906000641 | 22 | 269 | 1.6 | 3.2 | 0.00 | 0.00 | 0.00 | 99 | 1018.0 |
| 20260906000142 | 22 | 277 | 1.6 | 3.2 | 0.00 | 0.00 | 0.00 | 99 | 1018.0 |
| 20260905235641 | 22 | 243 | 1.6 | 3.2 | 0.00 | 0.00 | 0.00 | 99 | 1018.0 |
| 20260905235141 | 22 | 269 | 0.0 | 6.4 | 0.00 | 0.00 | 0.00 | 99 | 1017.0 |
| 20260905234641 | 23 | 281 | 3.2 | 3.2 | 0.00 | 0.00 | 0.00 | 99 | 1017.0 |
| 20260905234142 | 23 | 282 | 3.2 | 3.2 | 0.00 | 0.00 | 0.00 | 99 | 1017.0 |
| 20260905233642 | 23 | 284 | 1.6 | 3.2 | 0.00 | 0.00 | 0.00 | 99 | 1017.0 |
| 20260905233141 | 22 | 275 | 1.6 | 1.6 | 0.00 | 0.00 | 0.00 | 99 | 1017.0 |
| 20260905232642 | 22 | 290 | 0.0 | 1.6 | 0.00 | 0.00 | 0.00 | 99 | 1018.0 |
| 20260905232141 | 22 | 271 | 3.2 | 4.8 | 0.00 | 0.00 | 0.00 | 99 | 1018.0 |
| 20260905231641 | 22 | 261 | 3.2 | 3.2 | 0.00 | 0.00 | 0.00 | 99 | 1018.0 |
| 20260905231141 | 22 | 279 | 4.8 | 4.8 | 0.00 | 0.00 | 0.00 | 99 | 1018.0 |
| 20260905230641 | 22 | 283 | 4.8 | 4.8 | 0.00 | 0.00 | 0.00 | 99 | 1018.0 |
| 20260905230141 | 22 | 288 | 3.2 | 4.8 | 0.00 | 0.00 | 0.00 | 99 | 1018.0 |
| 20260905225641 | 22 | 272 | 3.2 | 3.2 | 0.00 | 0.00 | 0.00 | 99 | 1018.0 |
| 20260905225141 | 22 | 141 | 4.8 | 8.0 | 0.00 | 0.00 | 0.00 | 98 | 1019.0 |
| 20260905224641 | 22 | 292 | 0.0 | 4.8 | 0.00 | 0.00 | 0.00 | 98 | 1019.0 |
| 20260905224141 | 22 | 295 | 4.8 | 9.7 | 0.00 | 0.00 | 0.00 | 98 | 1020.0 |
| 20260905223641 | 22 | 100 | 4.8 | 4.8 | 0.00 | 0.00 | 0.00 | 97 | 1021.0 |
| 20260905223142 | 22 | 77 | 3.2 | 6.4 | 0.00 | 0.00 | 0.00 | 97 | 1021.0 |
| 20260905222642 | 22 | 175 | 1.6 | 4.8 | 0.00 | 0.00 | 0.00 | 96 | 1021.0 |
| 20260905222141 | 22 | 276 | 4.8 | 9.7 | 0.00 | 0.00 | 0.00 | 95 | 1021.0 |
| 20260905221642 | 23 | 295 | 9.7 | 29.0 | 0.00 | 0.00 | 0.00 | 91 | 1020.0 |
| 20260905221143 | 26 | 266 | 4.8 | 25.7 | 0.00 | 0.00 | 0.00 | 79 | 1020.0 |
| 20260905220641 | 27 | 282 | 6.4 | 27.4 | 0.00 | 0.00 | 0.00 | 73 | 1018.0 |
| 20260905220141 | 30 | 354 | 4.8 | 20.9 | 0.00 | 0.00 | 0.00 | 64 | 1018.0 |
| 20260905215642 | 31 | 287 | 11.3 | 11.3 | 0.00 | 0.00 | 0.00 | 61 | 1017.0 |
| 20260905215142 | 31 | 300 | 4.8 | 8.0 | 0.00 | 0.00 | 0.00 | 61 | 1016.0 |
| 20260905214641 | 31 | 280 | 3.2 | 11.3 | 0.00 | 0.00 | 0.00 | 60 | 1016.0 |
| 20260905214142 | 31 | 279 | 4.8 | 8.0 | 0.00 | 0.00 | 0.00 | 61 | 1016.0 |
| 20260905213641 | 32 | 284 | 4.8 | 9.7 | 0.00 | 0.00 | 0.00 | 59 | 1016.0 |
| 20260905213141 | 33 | 299 | 6.4 | 9.7 | 0.00 | 0.00 | 0.00 | 56 | 1016.0 |
| 20260905212641 | 33 | 288 | 4.8 | 6.4 | 0.00 | 0.00 | 0.00 | 57 | 1016.0 |
| 20260905212141 | 33 | 284 | 4.8 | 4.8 | 0.00 | 0.00 | 0.00 | 59 | 1016.0 |
| 20260905211643 | 32 | 291 | 4.8 | 6.4 | 0.00 | 0.00 | 0.00 | 61 | 1016.0 |
| 20260905211141 | 33 | 272 | 4.8 | 6.4 | 0.00 | 0.00 | 0.00 | 60 | 1016.0 |
| 20260905210641 | 33 | 291 | 4.8 | 8.0 | 0.00 | 0.00 | 0.00 | 57 | 1016.0 |
| 20260905210141 | 33 | 290 | 4.8 | 6.4 | 0.00 | 0.00 | 0.00 | 58 | 1016.0 |
| 20260905205642 | 33 | 296 | 4.8 | 6.4 | 0.00 | 0.00 | 0.00 | 57 | 1016.0 |
| 20260905205141 | 33 | 296 | 3.2 | 4.8 | 0.00 | 0.00 | 0.00 | 55 | 1016.0 |
| 20260905204642 | 34 | 278 | 4.8 | 6.4 | 0.00 | 0.00 | 0.00 | 55 | 1016.0 |
| 20260905204141 | 33 | 293 | 6.4 | 6.4 | 0.00 | 0.00 | 0.00 | 54 | 1016.0 |
| 20260905203641 | 33 | 291 | 4.8 | 9.7 | 0.00 | 0.00 | 0.00 | 53 | 1016.0 |
| 20260905203141 | 34 | 277 | 4.8 | 6.4 | 0.00 | 0.00 | 0.00 | 53 | 1016.0 |
| 20260905202641 | 35 | 289 | 4.8 | 6.4 | 0.00 | 0.00 | 0.00 | 52 | 1016.0 |
| 20260905202141 | 35 | 265 | 3.2 | 4.8 | 0.00 | 0.00 | 0.00 | 50 | 1016.0 |
| 20260905201642 | 35 | 272 | 4.8 | 8.0 | 0.00 | 0.00 | 0.00 | 49 | 1016.0 |
| 20260905201141 | 36 | 273 | 4.8 | 8.0 | 0.00 | 0.00 | 0.00 | 48 | 1016.0 |
| 20260905200641 | 37 | 272 | 4.8 | 4.8 | 0.00 | 0.00 | 0.00 | 45 | 1016.0 |
| 20260905200141 | 35 | 255 | 1.6 | 3.2 | 0.00 | 0.00 | 0.00 | 46 | 1016.0 |
| 20260905195642 | 36 | 276 | 3.2 | 6.4 | 0.00 | 0.00 | 0.00 | 46 | 1016.0 |
| 20260905195141 | 35 | 255 | 3.2 | 4.8 | 0.00 | 0.00 | 0.00 | 49 | 1016.0 |
| 20260905194641 | 36 | 286 | 3.2 | 4.8 | 0.00 | 0.00 | 0.00 | 46 | 1017.0 |
| 20260905194142 | 36 | 277 | 4.8 | 6.4 | 0.00 | 0.00 | 0.00 | 47 | 1016.0 |
| 20260905193642 | 35 | 287 | 4.8 | 4.8 | 0.00 | 0.00 | 0.00 | 46 | 1017.0 |
| 20260905193142 | 34 | 244 | 1.6 | 6.4 | 0.00 | 0.00 | 0.00 | 46 | 1017.0 |
| 20260905192642 | 36 | 283 | 4.8 | 6.4 | 0.00 | 0.00 | 0.00 | 47 | 1017.0 |
| 20260905192141 | 37 | 260 | 3.2 | 4.8 | 0.00 | 0.00 | 0.00 | 44 | 1017.0 |
| 20260905191641 | 36 | 258 | 3.2 | 8.0 | 0.00 | 0.00 | 0.00 | 47 | 1016.0 |
| 20260905191141 | 37 | 196 | 3.2 | 4.8 | 0.00 | 0.00 | 0.00 | 41 | 1016.0 |
| 20260905190641 | 36 | 269 | 0.0 | 8.0 | 0.00 | 0.00 | 0.00 | 44 | 1017.0 |
| 20260905190141 | 38 | 233 | 3.2 | 4.8 | 0.00 | 0.00 | 0.00 | 40 | 1017.0 |
| 20260905185642 | 38 | 276 | 4.8 | 4.8 | 0.00 | 0.00 | 0.00 | 43 | 1017.0 |
| 20260905185141 | 37 | 283 | 3.2 | 4.8 | 0.00 | 0.00 | 0.00 | 43 | 1017.0 |
| 20260905184641 | 37 | 275 | 4.8 | 8.0 | 0.00 | 0.00 | 0.00 | 45 | 1017.0 |
| 20260905184141 | 37 | 305 | 4.8 | 4.8 | 0.00 | 0.00 | 0.00 | 43 | 1017.0 |
| 20260905183641 | 36 | 272 | 3.2 | 6.4 | 0.00 | 0.00 | 0.00 | 45 | 1017.0 |
| 20260905183141 | 36 | 277 | 4.8 | 9.7 | 0.00 | 0.00 | 0.00 | 47 | 1017.0 |
| 20260905182642 | 35 | 269 | 1.6 | 4.8 | 0.00 | 0.00 | 0.00 | 48 | 1017.0 |
| 20260905182141 | 34 | 284 | 3.2 | 8.0 | 0.00 | 0.00 | 0.00 | 50 | 1018.0 |
| 20260905181641 | 35 | 295 | 8.0 | 8.0 | 0.00 | 0.00 | 0.00 | 50 | 1017.0 |
| 20260905181141 | 35 | 287 | 8.0 | 9.7 | 0.00 | 0.00 | 0.00 | 50 | 1018.0 |
| 20260905180641 | 35 | 292 | 4.8 | 6.4 | 0.00 | 0.00 | 0.00 | 49 | 1018.0 |
| 20260905180141 | 34 | 286 | 8.0 | 8.0 | 0.00 | 0.00 | 0.00 | 51 | 1018.0 |
| 20260905175642 | 35 | 266 | 3.2 | 8.0 | 0.00 | 0.00 | 0.00 | 52 | 1018.0 |
| 20260905175141 | 35 | 294 | 6.4 | 9.7 | 0.00 | 0.00 | 0.00 | 50 | 1018.0 |
| 20260905174641 | 35 | 274 | 4.8 | 8.0 | 0.00 | 0.00 | 0.00 | 50 | 1018.0 |
| 20260905174141 | 36 | 239 | 3.2 | 4.8 | 0.00 | 0.00 | 0.00 | 45 | 1018.0 |
| 20260905173642 | 36 | 235 | 3.2 | 6.4 | 0.00 | 0.00 | 0.00 | 47 | 1018.0 |
| 20260905173141 | 35 | 336 | 1.6 | 8.0 | 0.00 | 0.00 | 0.00 | 49 | 1018.0 |
| 20260905172640 | 35 | 296 | 6.4 | 9.7 | 0.00 | 0.00 | 0.00 | 49 | 1018.0 |
| 20260905172142 | 35 | 125 | 0.0 | 8.0 | 0.00 | 0.00 | 0.00 | 49 | 1018.0 |
| 20260905171641 | 35 | 283 | 8.0 | 8.0 | 0.00 | 0.00 | 0.00 | 51 | 1018.0 |
| 20260905171142 | 35 | 255 | 4.8 | 8.0 | 0.00 | 0.00 | 0.00 | 54 | 1019.0 |
| 20260905170641 | 33 | 221 | 4.8 | 6.4 | 0.00 | 0.00 | 0.00 | 54 | 1018.0 |
| 20260905170141 | 34 | 258 | 0.0 | 6.4 | 0.00 | 0.00 | 0.00 | 52 | 1018.0 |
| 20260905165641 | 33 | 289 | 6.4 | 6.4 | 0.00 | 0.00 | 0.00 | 55 | 1019.0 |
| 20260905165141 | 35 | 256 | 1.6 | 3.2 | 0.00 | 0.00 | 0.00 | 51 | 1019.0 |
| 20260905164641 | 35 | 73 | 0.0 | 4.8 | 0.00 | 0.00 | 0.00 | 51 | 1019.0 |
| 20260905164141 | 34 | 350 | 1.6 | 6.4 | 0.00 | 0.00 | 0.00 | 53 | 1019.0 |
| 20260905163642 | 34 | 218 | 9.7 | 9.7 | 0.00 | 0.00 | 0.00 | 53 | 1019.0 |
| 20260905163141 | 33 | 272 | 4.8 | 8.0 | 0.00 | 0.00 | 0.00 | 56 | 1019.0 |
| 20260905162641 | 33 | 266 | 3.2 | 8.0 | 0.00 | 0.00 | 0.00 | 55 | 1019.0 |
| 20260905162143 | 33 | 295 | 8.0 | 9.7 | 0.00 | 0.00 | 0.00 | 57 | 1019.0 |
| 20260905161642 | 33 | 273 | 1.6 | 6.4 | 0.00 | 0.00 | 0.00 | 54 | 1019.0 |
| 20260905161141 | 33 | 294 | 4.8 | 8.0 | 0.00 | 0.00 | 0.00 | 56 | 1019.0 |
| 20260905160642 | 32 | 355 | 1.6 | 8.0 | 0.00 | 0.00 | 0.00 | 55 | 1019.0 |
| 20260905160142 | 33 | 283 | 3.2 | 8.0 | 0.00 | 0.00 | 0.00 | 55 | 1019.0 |
| 20260905155641 | 32 | 79 | 0.0 | 8.0 | 0.00 | 0.00 | 0.00 | 55 | 1019.0 |
| 20260905155141 | 33 | 284 | 4.8 | 6.4 | 0.00 | 0.00 | 0.00 | 56 | 1020.0 |
| 20260905154643 | 33 | 82 | 3.2 | 9.7 | 0.00 | 0.00 | 0.00 | 53 | 1019.0 |
| 20260905154143 | 33 | 271 | 3.2 | 4.8 | 0.00 | 0.00 | 0.00 | 57 | 1019.0 |
| 20260905153641 | 32 | 267 | 3.2 | 6.4 | 0.00 | 0.00 | 0.00 | 58 | 1020.0 |
| 20260905153141 | 32 | 280 | 4.8 | 8.0 | 0.00 | 0.00 | 0.00 | 58 | 1020.0 |
| 20260905152641 | 33 | 50 | 0.0 | 8.0 | 0.00 | 0.00 | 0.00 | 55 | 1020.0 |
| 20260905152142 | 32 | 233 | 4.8 | 8.0 | 0.00 | 0.00 | 0.00 | 57 | 1020.0 |
| 20260905151642 | 31 | 280 | 1.6 | 4.8 | 0.00 | 0.00 | 0.00 | 58 | 1021.0 |
| 20260905151141 | 31 | 280 | 1.6 | 4.8 | 0.00 | 0.00 | 0.00 | 58 | 1021.0 |
| 20260905150642 | 31 | 280 | 1.6 | 4.8 | 0.00 | 0.00 | 0.00 | 58 | 1021.0 |
| 20260905150141 | 31 | 280 | 1.6 | 4.8 | 0.00 | 0.00 | 0.00 | 58 | 1021.0 |
| 20260905145641 | 31 | 280 | 1.6 | 4.8 | 0.00 | 0.00 | 0.00 | 58 | 1021.0 |
| 20260905145141 | 31 | 48 | 3.2 | 4.8 | 0.00 | 0.00 | 0.00 | 61 | 1020.0 |
| 20260905144642 | 32 | 67 | 4.8 | 4.8 | 0.00 | 0.00 | 0.00 | 58 | 1020.0 |
| 20260905144141 | 31 | 291 | 4.8 | 8.0 | 0.00 | 0.00 | 0.00 | 62 | 1021.0 |
| 20260905143641 | 31 | 286 | 3.2 | 4.8 | 0.00 | 0.00 | 0.00 | 63 | 1020.0 |
| 20260905143141 | 30 | 241 | 3.2 | 4.8 | 0.00 | 0.00 | 0.00 | 65 | 1021.0 |
| 20260905142643 | 31 | 269 | 3.2 | 4.8 | 0.00 | 0.00 | 0.00 | 65 | 1021.0 |
| 20260905142141 | 30 | 284 | 4.8 | 4.8 | 0.00 | 0.00 | 0.00 | 67 | 1021.0 |
| 20260905141642 | 30 | 283 | 1.6 | 4.8 | 0.00 | 0.00 | 0.00 | 67 | 1021.0 |
| 20260905141141 | 30 | 237 | 3.2 | 4.8 | 0.00 | 0.00 | 0.00 | 67 | 1021.0 |
| 20260905140641 | 30 | 268 | 3.2 | 3.2 | 0.00 | 0.00 | 0.00 | 69 | 1021.0 |
| 20260905140141 | 30 | 91 | 1.6 | 3.2 | 0.00 | 0.00 | 0.00 | 66 | 1021.0 |
| 20260905135641 | 30 | 272 | 0.0 | 3.2 | 0.00 | 0.00 | 0.00 | 68 | 1021.0 |
| 20260905135142 | 30 | 277 | 0.0 | 3.2 | 0.00 | 0.00 | 0.00 | 70 | 1021.0 |
| 20260905134641 | 28 | 278 | 3.2 | 4.8 | 0.00 | 0.00 | 0.00 | 72 | 1021.0 |
| 20260905134141 | 28 | 282 | 6.4 | 6.4 | 0.00 | 0.00 | 0.00 | 78 | 1021.0 |
| 20260905133641 | 28 | 281 | 3.2 | 3.2 | 0.00 | 0.00 | 0.00 | 76 | 1021.0 |
| 20260905133141 | 28 | 282 | 3.2 | 4.8 | 0.00 | 0.00 | 0.00 | 82 | 1021.0 |
| 20260905132641 | 27 | 284 | 4.8 | 4.8 | 0.00 | 0.00 | 0.00 | 82 | 1021.0 |
| 20260905132141 | 27 | 279 | 3.2 | 4.8 | 0.00 | 0.00 | 0.00 | 85 | 1021.0 |
| 20260905131641 | 27 | 290 | 3.2 | 3.2 | 0.00 | 0.00 | 0.00 | 86 | 1021.0 |
| 20260905131141 | 27 | 292 | 3.2 | 3.2 | 0.00 | 0.00 | 0.00 | 85 | 1021.0 |
| 20260905130642 | 26 | 294 | 3.2 | 3.2 | 0.00 | 0.00 | 0.00 | 86 | 1021.0 |
| 20260905130142 | 26 | 275 | 1.6 | 3.2 | 0.00 | 0.00 | 0.00 | 87 | 1021.0 |
| 20260905125642 | 26 | 288 | 3.2 | 3.2 | 0.00 | 0.00 | 0.00 | 89 | 1021.0 |
| 20260905125142 | 25 | 284 | 3.2 | 3.2 | 0.00 | 0.00 | 0.00 | 90 | 1021.0 |
| 20260905124641 | 25 | 265 | 3.2 | 3.2 | 0.00 | 0.00 | 0.00 | 94 | 1021.0 |
| 20260905124141 | 23 | 276 | 3.2 | 4.8 | 0.00 | 0.00 | 0.00 | 99 | 1021.0 |
| 20260905123641 | 23 | 269 | 3.2 | 3.2 | 0.00 | 0.00 | 0.00 | 99 | 1022.0 |
| 20260905123141 | 22 | 278 | 3.2 | 3.2 | 0.00 | 0.00 | 0.00 | 99 | 1021.0 |
| 20260905122641 | 22 | 235 | 0.0 | 4.8 | 0.00 | 0.00 | 0.00 | 99 | 1021.0 |
| 20260905122141 | 22 | 284 | 1.6 | 3.2 | 0.00 | 0.00 | 0.00 | 99 | 1021.0 |
| 20260905121642 | 22 | 280 | 1.6 | 3.2 | 0.00 | 0.00 | 0.00 | 99 | 1021.0 |
| 20260905121141 | 22 | 257 | 0.0 | 1.6 | 0.00 | 0.00 | 0.00 | 99 | 1021.0 |
| 20260905120641 | 22 | 269 | 0.0 | 0.0 | 0.00 | 0.00 | 0.00 | 99 | 1021.0 |
| 20260905120141 | 22 | 269 | 1.6 | 1.6 | 0.00 | 0.00 | 0.00 | 99 | 1021.0 |
| 20260905115641 | 21 | 242 | 0.0 | 1.6 | 0.00 | 0.00 | 0.00 | 99 | 1021.0 |
| 20260905115141 | 21 | 266 | 0.0 | 1.6 | 0.00 | 0.00 | 0.00 | 99 | 1021.0 |
| 20260905114642 | 21 | 284 | 0.0 | 1.6 | 0.00 | 0.00 | 0.00 | 99 | 1021.0 |